,,,PA_Meas_PMT16A,,PR_Meas_QMR101_102,,RH_Meas_QMH101,,SR_Meas_QMS101,,TA_Meas_QMH101,,GenWind,,GenWind,
date,time,status,PA,status,PR,status,RH,status,SR,status,TA,status,DirAvg,status,SpdAvg,
2010-02-25, 00:00:05,VALID,1005.13,VALID,0,VALID,92.0653,VALID,0,VALID,24.5582,VALID,359,VALID,0.627344,
2010-02-25, 00:01:05,VALID,1005.14,VALID,0,VALID,92.1111,VALID,0.100563,VALID,24.5582,VALID,359,VALID,0.426172,
2010-02-25, 00:02:05,VALID,1005.14,VALID,0,VALID,92.1721,VALID,0.100563,VALID,24.5582,VALID,2,VALID,0.394922,
2010-02-25, 00:03:05,VALID,1005.18,VALID,0,VALID,92.2408,VALID,0.100563,VALID,24.5582,VALID,2,VALID,0.546875,
2010-02-25, 00:04:05,VALID,1005.15,VALID,0,VALID,92.2789,VALID,0.100563,VALID,24.5796,VALID,2,VALID,0.352734,
2010-02-25, 00:05:05,VALID,1005.17,VALID,0,VALID,92.3171,VALID,0.100563,VALID,24.5777,VALID,2,VALID,0.376172,
2010-02-25, 00:06:05,VALID,1005.19,VALID,0,VALID,92.4163,VALID,0.100563,VALID,24.5777,VALID,2,VALID,0.395703,
2010-02-25, 00:07:05,VALID,1005.18,VALID,0,VALID,92.5078,VALID,0,VALID,24.5388,VALID,2,VALID,0.427734,
2010-02-25, 00:08:05,VALID,1005.21,VALID,0,VALID,92.607,VALID,0.100563,VALID,24.5388,VALID,2,VALID,0.333594,
2010-02-25, 00:09:05,VALID,1005.22,VALID,0,VALID,92.6909,VALID,0,VALID,24.5193,VALID,2,VALID,0.292969,
2010-02-25, 00:10:05,VALID,1005.21,VALID,0,VALID,92.8435,VALID,0.100563,VALID,24.4804,VALID,2,VALID,0.358203,
2010-02-25, 00:11:05,VALID,1005.2,VALID,0,VALID,92.9045,VALID,0,VALID,24.4396,VALID,2,VALID,0.398828,
2010-02-25, 00:12:05,VALID,1005.21,VALID,0,VALID,92.9961,VALID,0,VALID,24.4414,VALID,2,VALID,0.435937,
2010-02-25, 00:13:05,VALID,1005.21,VALID,0,VALID,93.0723,VALID,0.100563,VALID,24.4025,VALID,2,VALID,0.459766,
2010-02-25, 00:14:05,VALID,1005.19,VALID,0,VALID,93.1944,VALID,0,VALID,24.383,VALID,2,VALID,0.387891,
2010-02-25, 00:15:05,VALID,1005.18,VALID,0,VALID,93.2936,VALID,0,VALID,24.3654,VALID,2,VALID,0.368359,
2010-02-25, 00:16:05,VALID,1005.18,VALID,0,VALID,93.3851,VALID,0,VALID,24.3654,VALID,2,VALID,0.457812,
2010-02-25, 00:17:05,VALID,1005.15,VALID,0,VALID,93.4996,VALID,0,VALID,24.3246,VALID,2,VALID,0.321875,
2010-02-25, 00:18:05,VALID,1005.13,VALID,0,VALID,93.5835,VALID,0,VALID,24.3246,VALID,2,VALID,0.478906,
2010-02-25, 00:19:05,VALID,1005.11,VALID,0,VALID,93.6674,VALID,0,VALID,24.3265,VALID,2,VALID,0.246484,
2010-02-25, 00:20:05,VALID,1005.12,VALID,0,VALID,93.7284,VALID,0,VALID,24.3246,VALID,2,VALID,0.350391,
2010-02-25, 00:21:05,VALID,1005.14,VALID,0,VALID,93.7513,VALID,0,VALID,24.3246,VALID,2,VALID,0.471484,
2010-02-25, 00:22:05,VALID,1005.13,VALID,0,VALID,93.7589,VALID,0,VALID,24.3265,VALID,2,VALID,0.472266,
2010-02-25, 00:23:05,VALID,1005.11,VALID,0,VALID,93.8123,VALID,0,VALID,24.3265,VALID,2,VALID,0.551172,
2010-02-25, 00:24:05,VALID,1005.11,VALID,0,VALID,93.8352,VALID,0,VALID,24.3265,VALID,2,VALID,0.467969,
2010-02-25, 00:25:05,VALID,1005.08,VALID,0,VALID,93.8505,VALID,0,VALID,24.3052,VALID,357,VALID,0.503125,
2010-02-25, 00:26:05,VALID,1005.08,VALID,0,VALID,93.8581,VALID,0,VALID,24.3459,VALID,355,VALID,0.498437,
2010-02-25, 00:27:05,VALID,1005.06,VALID,0,VALID,93.8429,VALID,0,VALID,24.3654,VALID,355,VALID,0.374219,
2010-02-25, 00:28:05,VALID,1005.06,VALID,0,VALID,93.7818,VALID,0,VALID,24.3441,VALID,355,VALID,0.381641,
2010-02-25, 00:29:05,VALID,1005.03,VALID,0,VALID,93.6598,VALID,0,VALID,24.3849,VALID,355,VALID,0.391406,
2010-02-25, 00:30:05,VALID,1005.04,VALID,0,VALID,93.5987,VALID,0,VALID,24.4025,VALID,355,VALID,0.165234,
2010-02-25, 00:31:05,VALID,1005.03,VALID,0,VALID,93.4614,VALID,0,VALID,24.4043,VALID,355,VALID,0.426953,
2010-02-25, 00:32:05,VALID,1005.02,VALID,0,VALID,93.3241,VALID,0,VALID,24.4646,VALID,355,VALID,0.526563,
2010-02-25, 00:33:05,VALID,1005.02,VALID,0,VALID,93.202,VALID,0,VALID,24.4841,VALID,355,VALID,0.357422,
2010-02-25, 00:34:05,VALID,1005.02,VALID,0,VALID,93.0571,VALID,0,VALID,24.5017,VALID,355,VALID,0.226953,
2010-02-25, 00:35:05,VALID,1005.05,VALID,0,VALID,92.8358,VALID,0,VALID,24.5017,VALID,349,VALID,0.460547,
2010-02-25, 00:36:05,VALID,1005.03,VALID,0,VALID,92.729,VALID,0,VALID,24.5406,VALID,350,VALID,0.381641,
2010-02-25, 00:37:05,VALID,1005.06,VALID,0,VALID,92.5154,VALID,0,VALID,24.5388,VALID,350,VALID,0.345703,
2010-02-25, 00:38:05,VALID,1005.07,VALID,0,VALID,92.3095,VALID,0,VALID,24.5601,VALID,350,VALID,0.0789063,
2010-02-25, 00:39:05,VALID,1005.11,VALID,0,VALID,92.2255,VALID,0,VALID,24.5796,VALID,350,VALID,0,
2010-02-25, 00:40:05,VALID,1005.1,VALID,0,VALID,92.2255,VALID,0,VALID,24.599,VALID,350,VALID,0,
2010-02-25, 00:41:05,VALID,1005.13,VALID,0,VALID,92.2255,VALID,0,VALID,24.5796,VALID,350,VALID,0,
2010-02-25, 00:42:05,VALID,1005.13,VALID,0,VALID,92.3095,VALID,0,VALID,24.5582,VALID,350,VALID,0,
2010-02-25, 00:43:05,VALID,1005.15,VALID,0,VALID,92.3934,VALID,0,VALID,24.5796,VALID,350,VALID,0,
2010-02-25, 00:44:05,VALID,1005.18,VALID,0,VALID,92.3781,VALID,0,VALID,24.5582,VALID,350,VALID,0,
2010-02-25, 00:45:05,VALID,1005.19,VALID,0,VALID,92.4163,VALID,0,VALID,24.5601,VALID,350,VALID,0,
2010-02-25, 00:46:05,VALID,1005.17,VALID,0,VALID,92.3247,VALID,0,VALID,24.5601,VALID,350,VALID,0,
2010-02-25, 00:47:05,VALID,1005.14,VALID,0,VALID,92.2866,VALID,0,VALID,24.5601,VALID,350,VALID,0,
2010-02-25, 00:48:05,VALID,1005.14,VALID,0,VALID,92.1569,VALID,0,VALID,24.5601,VALID,350,VALID,0.363281,
2010-02-25, 00:49:05,VALID,1005.09,VALID,0,VALID,91.9204,VALID,0,VALID,24.5796,VALID,350,VALID,0.405469,
2010-02-25, 00:50:05,VALID,1005.1,VALID,0,VALID,91.7907,VALID,0,VALID,24.6009,VALID,350,VALID,0.191406,
2010-02-25, 00:51:05,VALID,1005.07,VALID,0,VALID,91.5771,VALID,0,VALID,24.6185,VALID,350,VALID,0.350781,
2010-02-25, 00:52:05,VALID,1005.08,VALID,0,VALID,91.4626,VALID,0,VALID,24.6185,VALID,350,VALID,0.282813,
2010-02-25, 00:53:05,VALID,1005.06,VALID,0,VALID,91.333,VALID,0,VALID,24.6574,VALID,350,VALID,0.189453,
2010-02-25, 00:54:05,VALID,1005.04,VALID,0,VALID,91.2414,VALID,0,VALID,24.6769,VALID,350,VALID,0.221484,
2010-02-25, 00:55:05,VALID,1005.01,VALID,0,VALID,90.9286,VALID,0,VALID,24.6556,VALID,341,VALID,0.534375,
2010-02-25, 00:56:05,VALID,1005,VALID,0,VALID,90.6082,VALID,0,VALID,24.7353,VALID,341,VALID,0.0121094,
2010-02-25, 00:57:05,VALID,1005.01,VALID,0,VALID,90.4404,VALID,0,VALID,24.7567,VALID,341,VALID,0,
2010-02-25, 00:58:05,VALID,1005,VALID,0,VALID,90.3336,VALID,0,VALID,24.7548,VALID,341,VALID,0,
2010-02-25, 00:59:05,VALID,1004.95,VALID,0,VALID,89.8682,VALID,0,VALID,24.7724,VALID,339,VALID,0,
2010-02-25, 01:00:05,VALID,1004.96,VALID,0,VALID,89.7461,VALID,0,VALID,24.7919,VALID,339,VALID,0,
2010-02-25, 01:01:05,VALID,1004.97,VALID,0,VALID,89.647,VALID,0,VALID,24.8113,VALID,339,VALID,0.311719,
2010-02-25, 01:02:05,VALID,1004.95,VALID,0,VALID,89.6622,VALID,0.100563,VALID,24.8308,VALID,339,VALID,0.282422,
2010-02-25, 01:03:05,VALID,1004.9,VALID,0,VALID,89.5173,VALID,0,VALID,24.8503,VALID,270,VALID,0.367969,
2010-02-25, 01:04:05,VALID,1004.87,VALID,0,VALID,89.235,VALID,0.100563,VALID,24.8484,VALID,347,VALID,0.484375,
2010-02-25, 01:05:04,VALID,1004.82,VALID,0,VALID,89.029,VALID,0,VALID,24.8892,VALID,355,VALID,0.742578,
2010-02-25, 01:06:04,VALID,1004.79,VALID,0,VALID,88.8688,VALID,0,VALID,24.9282,VALID,354,VALID,0.497656,
2010-02-25, 01:07:04,VALID,1004.78,VALID,0,VALID,88.6705,VALID,0,VALID,24.9671,VALID,330,VALID,0.494141,
2010-02-25, 01:08:04,VALID,1004.72,VALID,0,VALID,88.5255,VALID,0.100563,VALID,24.9671,VALID,329,VALID,0.474219,
2010-02-25, 01:09:04,VALID,1004.71,VALID,0,VALID,88.5637,VALID,0.100563,VALID,24.9671,VALID,339,VALID,0.5,
2010-02-25, 01:10:04,VALID,1004.73,VALID,0,VALID,88.4264,VALID,0.100563,VALID,24.9457,VALID,340,VALID,0.570313,
2010-02-25, 01:11:04,VALID,1004.75,VALID,0,VALID,88.3043,VALID,0.100563,VALID,24.9263,VALID,341,VALID,0.360547,
2010-02-25, 01:12:04,VALID,1004.73,VALID,0,VALID,88.3577,VALID,0,VALID,24.9885,VALID,344,VALID,0.493359,
2010-02-25, 01:13:04,VALID,1004.76,VALID,0,VALID,88.5179,VALID,0,VALID,24.9671,VALID,344,VALID,0.378516,
2010-02-25, 01:14:04,VALID,1004.76,VALID,0,VALID,88.2051,VALID,0,VALID,24.9476,VALID,335,VALID,0.683203,
2010-02-25, 01:15:04,VALID,1004.75,VALID,0,VALID,87.8084,VALID,0,VALID,24.9866,VALID,349,VALID,0.915625,
2010-02-25, 01:16:04,VALID,1004.72,VALID,0,VALID,87.7016,VALID,0,VALID,25.045,VALID,341,VALID,0.828516,
2010-02-25, 01:17:04,VALID,1004.72,VALID,0,VALID,88.0068,VALID,0,VALID,25.1053,VALID,360,VALID,0.777734,
2010-02-25, 01:18:04,VALID,1004.72,VALID,0,VALID,88.2356,VALID,0,VALID,25.0663,VALID,360,VALID,0.694922,
2010-02-25, 01:19:04,VALID,1004.66,VALID,0,VALID,88.4569,VALID,0,VALID,25.0079,VALID,360,VALID,0.507813,
2010-02-25, 01:20:04,VALID,1004.65,VALID,0,VALID,88.5942,VALID,0,VALID,24.9885,VALID,357,VALID,0.389453,
2010-02-25, 01:21:04,VALID,1004.65,VALID,0,VALID,88.6705,VALID,0,VALID,24.9495,VALID,355,VALID,0.495703,
2010-02-25, 01:22:04,VALID,1004.62,VALID,0,VALID,88.7162,VALID,0,VALID,24.93,VALID,354,VALID,0.535547,
2010-02-25, 01:23:04,VALID,1004.61,VALID,0,VALID,88.6628,VALID,0,VALID,24.9087,VALID,356,VALID,1.11953,
2010-02-25, 01:24:04,VALID,1004.6,VALID,0,VALID,88.0754,VALID,0,VALID,24.9885,VALID,352,VALID,0.871094,
2010-02-25, 01:25:04,VALID,1004.59,VALID,0,VALID,87.8923,VALID,0,VALID,25.0682,VALID,14,VALID,0.487891,
2010-02-25, 01:26:04,VALID,1004.6,VALID,0,VALID,87.9076,VALID,0,VALID,25.0663,VALID,4,VALID,0.693359,
2010-02-25, 01:27:04,VALID,1004.58,VALID,0,VALID,87.8771,VALID,0,VALID,25.0644,VALID,344,VALID,0.558203,
2010-02-25, 01:28:04,VALID,1004.59,VALID,0,VALID,88.1746,VALID,0,VALID,25.0858,VALID,344,VALID,0.311719,
2010-02-25, 01:29:04,VALID,1004.59,VALID,0,VALID,88.2967,VALID,0.100563,VALID,25.0625,VALID,342,VALID,0.330078,
2010-02-25, 01:30:04,VALID,1004.54,VALID,0,VALID,87.8466,VALID,0.100563,VALID,25.0644,VALID,339,VALID,0.585547,
2010-02-25, 01:31:04,VALID,1004.57,VALID,0,VALID,87.9076,VALID,0,VALID,25.1034,VALID,339,VALID,0.182031,
2010-02-25, 01:32:04,VALID,1004.55,VALID,0,VALID,87.9839,VALID,0.100563,VALID,25.1034,VALID,340,VALID,0,
2010-02-25, 01:33:04,VALID,1004.55,VALID,0,VALID,88.0296,VALID,0.100563,VALID,25.082,VALID,340,VALID,0.234766,
2010-02-25, 01:34:04,VALID,1004.52,VALID,0,VALID,88.1288,VALID,0.100563,VALID,25.0839,VALID,340,VALID,0.323438,
2010-02-25, 01:35:04,VALID,1004.54,VALID,0,VALID,88.4569,VALID,0.100563,VALID,25.0644,VALID,340,VALID,0.358203,
2010-02-25, 01:36:04,VALID,1004.53,VALID,0,VALID,88.5332,VALID,0.100563,VALID,25.0255,VALID,357,VALID,0.496875,
2010-02-25, 01:37:04,VALID,1004.54,VALID,0,VALID,88.8536,VALID,0.100563,VALID,25.0255,VALID,357,VALID,0.371094,
2010-02-25, 01:38:04,VALID,1004.53,VALID,0,VALID,88.968,VALID,0,VALID,24.9866,VALID,357,VALID,0.295312,
2010-02-25, 01:39:04,VALID,1004.52,VALID,0,VALID,89.1969,VALID,0,VALID,24.9671,VALID,357,VALID,0.308203,
2010-02-25, 01:40:04,VALID,1004.53,VALID,0,VALID,89.6393,VALID,0.100563,VALID,24.9476,VALID,357,VALID,0.446094,
2010-02-25, 01:41:04,VALID,1004.52,VALID,0,VALID,89.8377,VALID,0.100563,VALID,24.8892,VALID,357,VALID,0.35,
2010-02-25, 01:42:04,VALID,1004.48,VALID,0,VALID,89.914,VALID,0,VALID,24.8716,VALID,357,VALID,0.162891,
2010-02-25, 01:43:04,VALID,1004.49,VALID,0,VALID,89.7919,VALID,0,VALID,24.8327,VALID,357,VALID,0.455859,
2010-02-25, 01:44:04,VALID,1004.45,VALID,0,VALID,89.5783,VALID,0,VALID,24.7919,VALID,357,VALID,0.430469,
2010-02-25, 01:45:04,VALID,1004.47,VALID,0,VALID,89.4334,VALID,0,VALID,24.8113,VALID,357,VALID,0.323828,
2010-02-25, 01:46:04,VALID,1004.45,VALID,0,VALID,89.5783,VALID,0,VALID,24.8522,VALID,357,VALID,0.307031,
2010-02-25, 01:47:04,VALID,1004.42,VALID,0,VALID,89.5859,VALID,0,VALID,24.8503,VALID,357,VALID,0.463281,
2010-02-25, 01:48:04,VALID,1004.4,VALID,0,VALID,89.7919,VALID,0,VALID,24.8503,VALID,357,VALID,0.547266,
2010-02-25, 01:49:04,VALID,1004.4,VALID,0,VALID,89.7996,VALID,0,VALID,24.8113,VALID,355,VALID,0.521484,
2010-02-25, 01:50:04,VALID,1004.41,VALID,0,VALID,89.8606,VALID,0,VALID,24.7724,VALID,332,VALID,0.769922,
2010-02-25, 01:51:04,VALID,1004.4,VALID,0,VALID,90.2344,VALID,0,VALID,24.7529,VALID,338,VALID,0.480078,
2010-02-25, 01:52:04,VALID,1004.43,VALID,0,VALID,90.2573,VALID,0,VALID,24.7335,VALID,338,VALID,0.536328,
2010-02-25, 01:53:04,VALID,1004.43,VALID,0,VALID,90.4633,VALID,0,VALID,24.714,VALID,338,VALID,0.521484,
2010-02-25, 01:54:04,VALID,1004.44,VALID,0,VALID,90.5319,VALID,0,VALID,24.6945,VALID,338,VALID,0.496094,
2010-02-25, 01:55:04,VALID,1004.42,VALID,0,VALID,90.5167,VALID,0.100563,VALID,24.6556,VALID,340,VALID,0.723828,
2010-02-25, 01:56:04,VALID,1004.4,VALID,0,VALID,90.4785,VALID,0,VALID,24.6556,VALID,349,VALID,0.599219,
2010-02-25, 01:57:04,VALID,1004.41,VALID,0,VALID,90.5624,VALID,0,VALID,24.6945,VALID,349,VALID,0.464063,
2010-02-25, 01:58:04,VALID,1004.37,VALID,0,VALID,90.4175,VALID,0.100563,VALID,24.6964,VALID,349,VALID,0.553516,
2010-02-25, 01:59:04,VALID,1004.34,VALID,0,VALID,90.1581,VALID,0,VALID,24.6769,VALID,349,VALID,0.381641,
2010-02-25, 02:00:04,VALID,1004.33,VALID,0,VALID,90.1734,VALID,0,VALID,24.6964,VALID,349,VALID,0.469531,
2010-02-25, 02:01:04,VALID,1004.35,VALID,0,VALID,89.9979,VALID,0,VALID,24.7177,VALID,345,VALID,0.561719,
2010-02-25, 02:02:04,VALID,1004.33,VALID,0,VALID,89.6241,VALID,0,VALID,24.7159,VALID,350,VALID,0.557813,
2010-02-25, 02:03:04,VALID,1004.32,VALID,0,VALID,89.0214,VALID,0,VALID,24.7743,VALID,349,VALID,0.646484,
2010-02-25, 02:04:04,VALID,1004.32,VALID,0,VALID,88.7468,VALID,0,VALID,24.8522,VALID,354,VALID,0.567187,
2010-02-25, 02:05:04,VALID,1004.35,VALID,0,VALID,88.4111,VALID,0,VALID,24.9125,VALID,355,VALID,0.651953,
2010-02-25, 02:06:04,VALID,1004.32,VALID,0,VALID,87.9381,VALID,0,VALID,24.9495,VALID,347,VALID,0.957031,
2010-02-25, 02:07:04,VALID,1004.34,VALID,0,VALID,87.7474,VALID,0,VALID,24.9885,VALID,349,VALID,0.447656,
2010-02-25, 02:08:04,VALID,1004.33,VALID,0,VALID,87.8618,VALID,0,VALID,25.0274,VALID,349,VALID,0.414453,
2010-02-25, 02:09:04,VALID,1004.31,VALID,0,VALID,87.4117,VALID,0,VALID,25.0488,VALID,353,VALID,0.501172,
2010-02-25, 02:10:04,VALID,1004.28,VALID,0,VALID,87.282,VALID,0,VALID,25.0682,VALID,353,VALID,0.435156,
2010-02-25, 02:11:04,VALID,1004.29,VALID,0,VALID,87.2286,VALID,0,VALID,25.0858,VALID,338,VALID,0.664844,
2010-02-25, 02:12:04,VALID,1004.26,VALID,0,VALID,87.1828,VALID,0,VALID,25.1053,VALID,341,VALID,0.652734,
2010-02-25, 02:13:04,VALID,1004.28,VALID,0,VALID,86.9921,VALID,0,VALID,25.1053,VALID,350,VALID,0.733984,
2010-02-25, 02:14:04,VALID,1004.27,VALID,0,VALID,86.9998,VALID,0,VALID,25.1053,VALID,353,VALID,0.534375,
2010-02-25, 02:15:04,VALID,1004.24,VALID,0,VALID,87.3125,VALID,0,VALID,25.1267,VALID,353,VALID,0.499609,
2010-02-25, 02:16:04,VALID,1004.22,VALID,0,VALID,87.488,VALID,0,VALID,25.0877,VALID,349,VALID,0.732813,
2010-02-25, 02:17:04,VALID,1004.2,VALID,0,VALID,87.7321,VALID,0,VALID,25.0469,VALID,10,VALID,0.668359,
2010-02-25, 02:18:04,VALID,1004.18,VALID,0,VALID,87.5948,VALID,0,VALID,25.0293,VALID,5,VALID,0.444531,
2010-02-25, 02:19:04,VALID,1004.17,VALID,0,VALID,87.5719,VALID,0,VALID,25.0293,VALID,1,VALID,0.432031,
2010-02-25, 02:20:04,VALID,1004.17,VALID,0,VALID,87.4117,VALID,0,VALID,25.0079,VALID,356,VALID,0.471094,
2010-02-25, 02:21:04,VALID,1004.15,VALID,0,VALID,87.3583,VALID,0,VALID,25.0079,VALID,355,VALID,0.399219,
2010-02-25, 02:22:04,VALID,1004.16,VALID,0,VALID,87.4651,VALID,0,VALID,25.0079,VALID,355,VALID,0.470313,
2010-02-25, 02:23:04,VALID,1004.13,VALID,0,VALID,87.6024,VALID,0,VALID,24.9885,VALID,355,VALID,0.454297,
2010-02-25, 02:24:04,VALID,1004.16,VALID,0,VALID,87.6635,VALID,0,VALID,24.969,VALID,353,VALID,0.523438,
2010-02-25, 02:25:04,VALID,1004.12,VALID,0,VALID,87.6101,VALID,0,VALID,24.9904,VALID,353,VALID,0.387109,
2010-02-25, 02:26:04,VALID,1004.09,VALID,0,VALID,87.8923,VALID,0,VALID,24.9495,VALID,354,VALID,0,
2010-02-25, 02:27:04,VALID,1004.05,VALID,0,VALID,88.0678,VALID,0,VALID,24.9514,VALID,354,VALID,0,
2010-02-25, 02:28:04,VALID,1004.01,VALID,0,VALID,88.3958,VALID,0,VALID,24.9125,VALID,353,VALID,0.710156,
2010-02-25, 02:29:04,VALID,1003.99,VALID,0,VALID,88.6247,VALID,0,VALID,24.8308,VALID,345,VALID,0.514453,
2010-02-25, 02:30:04,VALID,1003.94,VALID,0,VALID,88.7239,VALID,0,VALID,24.7724,VALID,344,VALID,0.55,
2010-02-25, 02:31:04,VALID,1003.91,VALID,0,VALID,88.5332,VALID,0,VALID,24.7724,VALID,340,VALID,0.761719,
2010-02-25, 02:32:04,VALID,1003.92,VALID,0,VALID,88.5942,VALID,0,VALID,24.7919,VALID,345,VALID,0.592188,
2010-02-25, 02:33:04,VALID,1003.88,VALID,0,VALID,88.6628,VALID,0,VALID,24.7724,VALID,344,VALID,0.451562,
2010-02-25, 02:34:04,VALID,1003.88,VALID,0,VALID,88.8002,VALID,0,VALID,24.7529,VALID,344,VALID,0.528906,
2010-02-25, 02:35:04,VALID,1003.86,VALID,0,VALID,88.495,VALID,0,VALID,24.7335,VALID,338,VALID,0.762109,
2010-02-25, 02:36:04,VALID,1003.89,VALID,0,VALID,88.556,VALID,0,VALID,24.7937,VALID,343,VALID,0.522656,
2010-02-25, 02:37:04,VALID,1003.85,VALID,0,VALID,88.5103,VALID,0,VALID,24.7724,VALID,7,VALID,0.472656,
2010-02-25, 02:38:04,VALID,1003.83,VALID,0,VALID,88.4035,VALID,0,VALID,24.7937,VALID,356,VALID,0.814062,
2010-02-25, 02:39:04,VALID,1003.83,VALID,0,VALID,88.4798,VALID,0,VALID,24.7724,VALID,354,VALID,0.539844,
2010-02-25, 02:40:04,VALID,1003.83,VALID,0,VALID,88.2738,VALID,0,VALID,24.7919,VALID,343,VALID,0.410156,
2010-02-25, 02:41:04,VALID,1003.78,VALID,0,VALID,88.4416,VALID,0,VALID,24.8132,VALID,343,VALID,0.314063,
2010-02-25, 02:42:04,VALID,1003.78,VALID,0,VALID,88.1212,VALID,0,VALID,24.7529,VALID,1,VALID,0.698438,
2010-02-25, 02:43:04,VALID,1003.74,VALID,0,VALID,88.1746,VALID,0,VALID,24.7937,VALID,4,VALID,0.491406,
2010-02-25, 02:44:04,VALID,1003.75,VALID,0,VALID,88.1517,VALID,0,VALID,24.7548,VALID,3,VALID,0.449219,
2010-02-25, 02:45:04,VALID,1003.72,VALID,0,VALID,88.0602,VALID,0,VALID,24.7956,VALID,324,VALID,0.541797,
2010-02-25, 02:46:04,VALID,1003.72,VALID,0,VALID,88.0678,VALID,0,VALID,24.7743,VALID,325,VALID,0.400391,
2010-02-25, 02:47:04,VALID,1003.71,VALID,0,VALID,88.0373,VALID,0,VALID,24.7548,VALID,331,VALID,0.534766,
2010-02-25, 02:48:04,VALID,1003.71,VALID,0,VALID,87.7855,VALID,0,VALID,24.7743,VALID,351,VALID,0.459375,
2010-02-25, 02:49:04,VALID,1003.7,VALID,0,VALID,87.7169,VALID,0,VALID,24.7937,VALID,351,VALID,0.378516,
2010-02-25, 02:50:04,VALID,1003.71,VALID,0,VALID,87.8694,VALID,0,VALID,24.7937,VALID,351,VALID,0.295703,
2010-02-25, 02:51:04,VALID,1003.68,VALID,0,VALID,88.0144,VALID,0,VALID,24.7761,VALID,351,VALID,0.332031,
2010-02-25, 02:52:04,VALID,1003.67,VALID,0,VALID,88.0678,VALID,0,VALID,24.7159,VALID,351,VALID,0.471875,
2010-02-25, 02:53:04,VALID,1003.68,VALID,0,VALID,88.2051,VALID,0,VALID,24.7353,VALID,351,VALID,0.2125,
2010-02-25, 02:54:04,VALID,1003.68,VALID,0,VALID,88.1059,VALID,0,VALID,24.7353,VALID,351,VALID,0.489844,
2010-02-25, 02:55:04,VALID,1003.68,VALID,0,VALID,88.1059,VALID,0,VALID,24.7372,VALID,351,VALID,0.249219,
2010-02-25, 02:56:04,VALID,1003.67,VALID,0,VALID,88.228,VALID,0,VALID,24.6964,VALID,351,VALID,0.476172,
2010-02-25, 02:57:04,VALID,1003.66,VALID,0,VALID,88.1746,VALID,0,VALID,24.6983,VALID,351,VALID,0.243359,
2010-02-25, 02:58:04,VALID,1003.69,VALID,0,VALID,88.167,VALID,0,VALID,24.6983,VALID,351,VALID,0.429297,
2010-02-25, 02:59:04,VALID,1003.7,VALID,0,VALID,88.5713,VALID,0,VALID,24.6574,VALID,351,VALID,0.232031,
2010-02-25, 03:00:04,VALID,1003.68,VALID,0,VALID,88.495,VALID,0,VALID,24.6361,VALID,351,VALID,0.442969,
2010-02-25, 03:01:04,VALID,1003.72,VALID,0,VALID,88.6018,VALID,0,VALID,24.638,VALID,355,VALID,0.544141,
2010-02-25, 03:02:04,VALID,1003.71,VALID,0,VALID,88.7849,VALID,0,VALID,24.599,VALID,355,VALID,0.392969,
2010-02-25, 03:03:04,VALID,1003.71,VALID,0,VALID,88.7315,VALID,0,VALID,24.5796,VALID,343,VALID,0.853125,
2010-02-25, 03:04:04,VALID,1003.71,VALID,0,VALID,88.8536,VALID,0,VALID,24.599,VALID,331,VALID,0.194141,
2010-02-25, 03:05:04,VALID,1003.73,VALID,0,VALID,88.7544,VALID,0,VALID,24.5796,VALID,332,VALID,0.610547,
2010-02-25, 03:06:04,VALID,1003.73,VALID,0,VALID,88.7849,VALID,0,VALID,24.5601,VALID,334,VALID,0.364062,
2010-02-25, 03:07:04,VALID,1003.77,VALID,0,VALID,88.9756,VALID,0,VALID,24.5406,VALID,334,VALID,0.544531,
2010-02-25, 03:08:04,VALID,1003.75,VALID,0,VALID,89.1969,VALID,0,VALID,24.523,VALID,335,VALID,0.453516,
2010-02-25, 03:09:04,VALID,1003.76,VALID,0,VALID,89.3418,VALID,0,VALID,24.523,VALID,335,VALID,0.233984,
2010-02-25, 03:10:04,VALID,1003.81,VALID,0,VALID,89.3418,VALID,0,VALID,24.4841,VALID,335,VALID,0.357031,
2010-02-25, 03:11:04,VALID,1003.81,VALID,0,VALID,89.5631,VALID,0,VALID,24.4628,VALID,335,VALID,0.267188,
2010-02-25, 03:12:04,VALID,1003.84,VALID,0,VALID,89.6012,VALID,0,VALID,24.4238,VALID,335,VALID,0.3,
2010-02-25, 03:13:04,VALID,1003.86,VALID,0,VALID,89.5783,VALID,0,VALID,24.4257,VALID,339,VALID,0.723437,
2010-02-25, 03:14:04,VALID,1003.87,VALID,0,VALID,89.4486,VALID,0,VALID,24.422,VALID,345,VALID,0.407031,
2010-02-25, 03:15:04,VALID,1003.9,VALID,0,VALID,89.2884,VALID,0,VALID,24.4609,VALID,345,VALID,0.432031,
2010-02-25, 03:16:04,VALID,1003.92,VALID,0,VALID,89.5554,VALID,0,VALID,24.4609,VALID,345,VALID,0.475781,
2010-02-25, 03:17:04,VALID,1003.92,VALID,0,VALID,89.7461,VALID,0.100563,VALID,24.4414,VALID,345,VALID,0.399609,
2010-02-25, 03:18:04,VALID,1003.91,VALID,0,VALID,90.0208,VALID,0,VALID,24.383,VALID,345,VALID,0.469922,
2010-02-25, 03:19:04,VALID,1003.91,VALID,0,VALID,90.3183,VALID,0.100563,VALID,24.3265,VALID,345,VALID,0.48125,
2010-02-25, 03:20:04,VALID,1003.93,VALID,0,VALID,90.7226,VALID,0.100563,VALID,24.2662,VALID,345,VALID,0.432031,
2010-02-25, 03:21:04,VALID,1003.9,VALID,0,VALID,90.9668,VALID,0.100563,VALID,24.2078,VALID,345,VALID,0.514844,
2010-02-25, 03:22:04,VALID,1003.9,VALID,0,VALID,91.4016,VALID,0,VALID,24.1689,VALID,345,VALID,0.589453,
2010-02-25, 03:23:04,VALID,1003.87,VALID,0,VALID,91.7373,VALID,0.100563,VALID,24.13,VALID,22,VALID,0.645703,
2010-02-25, 03:24:04,VALID,1003.87,VALID,0,VALID,92.0653,VALID,0.100563,VALID,24.1105,VALID,20,VALID,0.635156,
2010-02-25, 03:25:04,VALID,1003.9,VALID,0,VALID,92.1492,VALID,0,VALID,24.0929,VALID,9,VALID,0.644531,
2010-02-25, 03:26:04,VALID,1003.9,VALID,0,VALID,92.2027,VALID,0,VALID,24.1123,VALID,9,VALID,0.464844,
2010-02-25, 03:27:04,VALID,1003.9,VALID,0,VALID,92.2484,VALID,0,VALID,24.1123,VALID,9,VALID,0.431641,
2010-02-25, 03:28:04,VALID,1003.91,VALID,0,VALID,92.2713,VALID,0,VALID,24.1123,VALID,9,VALID,0.252344,
2010-02-25, 03:29:04,VALID,1003.9,VALID,0,VALID,92.3476,VALID,0,VALID,24.1318,VALID,10,VALID,0.436328,
2010-02-25, 03:30:04,VALID,1003.91,VALID,0,VALID,92.3552,VALID,0.100563,VALID,24.1105,VALID,350,VALID,0.505859,
2010-02-25, 03:31:04,VALID,1003.87,VALID,0,VALID,92.3247,VALID,0,VALID,24.1494,VALID,349,VALID,0.582812,
2010-02-25, 03:32:04,VALID,1003.91,VALID,0,VALID,91.9967,VALID,0.100563,VALID,24.206,VALID,353,VALID,0.7375,
2010-02-25, 03:33:04,VALID,1003.88,VALID,0,VALID,91.3864,VALID,0.100563,VALID,24.3052,VALID,351,VALID,0.808984,
2010-02-25, 03:34:04,VALID,1003.88,VALID,0,VALID,90.7532,VALID,0.100563,VALID,24.4025,VALID,353,VALID,0.567187,
2010-02-25, 03:35:04,VALID,1003.88,VALID,0,VALID,90.2191,VALID,0.100563,VALID,24.4609,VALID,351,VALID,0.564844,
2010-02-25, 03:36:04,VALID,1003.89,VALID,0,VALID,89.8911,VALID,0.100563,VALID,24.4785,VALID,351,VALID,0.591406,
2010-02-25, 03:37:04,VALID,1003.88,VALID,0,VALID,89.6012,VALID,0.100563,VALID,24.5388,VALID,351,VALID,0.387109,
2010-02-25, 03:38:04,VALID,1003.92,VALID,0,VALID,89.4944,VALID,0,VALID,24.5777,VALID,351,VALID,0.407031,
2010-02-25, 03:39:04,VALID,1003.88,VALID,0,VALID,89.502,VALID,0,VALID,24.6185,VALID,351,VALID,0.533203,
2010-02-25, 03:40:04,VALID,1003.92,VALID,0,VALID,89.296,VALID,0,VALID,24.638,VALID,339,VALID,0.435547,
2010-02-25, 03:41:04,VALID,1003.88,VALID,0,VALID,89.2121,VALID,0,VALID,24.6361,VALID,339,VALID,0.357031,
2010-02-25, 03:42:04,VALID,1003.89,VALID,0,VALID,89.1969,VALID,0,VALID,24.6556,VALID,339,VALID,0.330859,
2010-02-25, 03:43:04,VALID,1003.88,VALID,0,VALID,89.1282,VALID,0.100563,VALID,24.675,VALID,339,VALID,0.375781,